Location: Newark
(48.3453°N, 0.5589°E)
Time: 22:01:16
(UTC+00:00)

A-11 Canister half - All Passes

Search period start: 15 December 2019 00:00
Search period end: 25 December 2019 00:00
Orbit: 1526 x 1683 km, 47.3° (Epoch: 14 December)

Date Brightness Start Highest point End Pass type
(mag) Time Alt. Az. Time Alt. Az. Time Alt. Az.
15 Dec - 03:15:50 10° S 03:23:51 28° SE 03:31:56 10° E visible
15 Dec - 05:17:44 10° SW 05:27:39 64° SSE 05:37:38 10° ENE visible
15 Dec - 07:22:25 10° W 07:32:38 85° S 07:42:46 10° E daylight
15 Dec - 09:27:39 10° WNW 09:37:44 69° SSW 09:47:35 10° ESE daylight
15 Dec - 11:33:11 10° WNW 11:41:43 33° SW 11:50:05 10° SSE daylight
16 Dec - 02:54:27 10° S 03:02:17 27° SE 03:10:10 10° E visible
16 Dec - 04:56:08 10° SW 05:06:01 62° SSE 05:15:58 10° ENE visible
16 Dec - 07:00:46 10° W 07:10:58 85° S 07:21:07 10° E visible
16 Dec - 09:05:59 10° WNW 09:16:05 71° SSW 09:25:59 10° ESE daylight
16 Dec - 11:11:27 10° WNW 11:20:08 34° SW 11:28:38 10° SSE daylight
17 Dec - 02:33:06 10° S 02:40:42 25° SE 02:48:24 10° E visible
17 Dec - 04:34:32 10° SW 04:44:22 61° SSE 04:54:17 10° ENE visible
17 Dec - 06:39:05 10° W 06:49:18 85° S 06:59:27 10° E visible
17 Dec - 08:44:18 10° WNW 08:54:26 72° SSW 09:04:22 10° ESE daylight
17 Dec - 10:49:44 10° WNW 10:58:33 36° SW 11:07:11 10° SSE daylight
18 Dec - 02:11:45 10° S 02:19:08 24° SE 02:26:36 10° E visible
18 Dec - 04:12:57 10° SW 04:22:44 59° SSE 04:32:37 10° ENE visible
18 Dec - 06:17:25 10° W 06:27:37 85° S 06:37:47 10° E visible
18 Dec - 08:22:38 10° W 08:32:46 73° SSW 08:42:45 10° ESE daylight
18 Dec - 10:28:00 10° WNW 10:36:58 37° SW 10:45:44 10° SSE daylight
19 Dec - 01:50:26 10° S 01:57:34 23° SE 02:04:48 10° E visible
19 Dec - 03:51:23 10° SW 04:01:06 57° SSE 04:10:57 10° ENE visible
19 Dec - 05:55:46 10° W 06:05:56 84° S 06:16:08 10° E visible
19 Dec - 08:00:58 10° W 08:11:07 75° SSW 08:21:08 10° ESE daylight
19 Dec - 10:06:18 10° WNW 10:15:22 39° SW 10:24:16 10° SSE daylight
19 Dec - 12:16:22 10° WSW 12:18:07 11° WSW 12:19:52 10° SW daylight
20 Dec - 01:29:08 10° S 01:36:01 22° SE 01:43:00 10° E visible
20 Dec - 03:29:49 10° SW 03:39:28 55° SSE 03:49:16 10° ENE visible
20 Dec - 05:34:06 10° WSW 05:44:16 84° S 05:54:27 10° E visible
20 Dec - 07:39:17 10° W 07:49:26 76° SSW 07:59:29 10° ESE daylight
20 Dec - 09:44:36 10° WNW 09:53:46 41° SW 10:02:47 10° SSE daylight
20 Dec - 11:53:39 10° WSW 11:56:35 12° WSW 11:59:32 10° SW daylight
21 Dec - 01:07:52 10° S 01:14:28 20° SE 01:21:09 10° E visible
21 Dec - 03:08:16 10° SW 03:17:51 54° SSE 03:27:36 10° ENE visible
21 Dec - 05:12:26 10° WSW 05:22:36 83° S 05:32:47 10° E visible
21 Dec - 07:17:37 10° W 07:27:47 77° SSW 07:37:51 10° ESE daylight
21 Dec - 09:22:54 10° WNW 09:32:10 42° SW 09:41:18 10° SSE daylight
21 Dec - 11:31:18 10° W 11:35:04 13° WSW 11:38:48 10° SW daylight
22 Dec - 00:46:38 10° SSE 00:52:56 19° SE 00:59:17 10° E visible
22 Dec - 02:46:43 10° SW 02:56:13 52° SSE 03:05:55 10° ENE visible
22 Dec - 04:50:48 10° WSW 05:00:55 82° S 05:11:08 10° E visible
22 Dec - 06:55:57 10° W 07:06:07 78° SSW 07:16:14 10° ESE visible
22 Dec - 09:01:12 10° WNW 09:10:34 44° SW 09:19:47 10° SSE daylight
22 Dec - 11:09:08 10° W 11:13:32 14° WSW 11:17:55 10° SSW daylight
23 Dec - 00:25:25 10° SSE 00:31:22 18° SE 00:37:24 10° E visible
23 Dec - 02:25:10 10° SW 02:34:36 50° SE 02:44:13 10° ENE visible
23 Dec - 04:29:08 10° WSW 04:39:14 82° S 04:49:27 10° E visible
23 Dec - 06:34:17 10° W 06:44:27 79° SSW 06:54:34 10° ESE visible
23 Dec - 08:39:31 10° WNW 08:48:57 46° SW 08:58:16 10° SSE daylight
23 Dec - 10:47:04 10° W 10:52:00 15° WSW 10:56:54 10° SSW daylight
24 Dec - 00:04:16 10° SSE 00:09:50 17° SE 00:15:28 10° E visible
24 Dec - 02:03:37 10° SW 02:12:59 49° SE 02:22:33 10° ENE visible
24 Dec - 04:07:29 10° WSW 04:17:34 81° SSE 04:27:46 10° E visible
24 Dec - 06:12:36 10° W 06:22:47 80° SSW 06:32:55 10° ESE visible
24 Dec - 08:17:49 10° WNW 08:27:20 47° SW 08:36:44 10° SSE daylight
24 Dec - 10:25:04 10° W 10:30:28 16° SW 10:35:50 10° SSW daylight
24 Dec - 23:43:09 10° SSE 23:48:18 16° SE 23:53:30 10° E night (unlit)
